Fort Belvoir, VA

8:17 PM EST on December 06, 2019 (GMT -0500)
Davison Army Air Field

Weather History for KDAA - May, 2019

Change the Weather History Date:

Wednesday, May 22, 2019

  Actual Average Record
Temperature  
Mean Temperature 59 °F -  
Max Temperature 71 °F 75 °F 89 °F (1999)
Min Temperature 48 °F 52 °F 35 °F (2002)
Degree Days  
Heating Degree Days 6    
Growing Degree Days 9 (Base 50)    
Moisture  
Dew Point 47 °F    
Average Humidity 61    
Maximum Humidity 90    
Minimum Humidity 40    
Precipitation  
Precipitation 0.00 in - - ()
Sea Level Pressure  
Sea Level Pressure 30.25 in    
Wind  
Wind Speed 1 mph ()    
Max Wind Speed 8 mph    
Max Gust Speed -    
Visibility 10.0 miles    
Events      
Averages and records for this station are not official NWS values.
T = Trace of Precipitation, MM = Missing Value Source: Averaged Metar Reports

Daily Weather History Graph

Daily Weather History Graph

Search for Another Location

Airport or City:

Astronomy

May. 22, 2019 Rise Set
Actual Time 5:51 AM EDT 8:19 PM EDT
Civil Twilight 5:20 AM EDT 8:50 PM EDT
Nautical Twilight 4:43 AM EDT 9:28 PM EDT
Astronomical Twilight 4:01 AM EDT 10:10 PM EDT
Moon No Moon Rise 8:57 AM EDT (5/22)
Length of Visible Light 15h 29m
Length of Day
14h 28m
Waning Gibbous, 85% of the Moon is Illuminated
May 22
Waning Gibbous
May 26
Last Quarter
Jun 3
New
Jun 10
First Quarter
Jun 17
Full

Hourly Weather History & Observations

Time (EDT) Temp. Dew Point Humidity Pressure Visibility Wind Dir Wind Speed Gust Speed Precip Events Conditions
12:56 AM 52.7 °F 48.0 °F 84% 30.15 in 10.0 mi Calm Calm - N/A   Clear
1:56 AM 50.4 °F 47.3 °F 89% 30.17 in 10.0 mi Calm Calm - N/A   Clear
2:56 AM 50.2 °F 47.3 °F 90% 30.19 in 10.0 mi Calm Calm - N/A   Clear
3:56 AM 52.9 °F 44.4 °F 73% 30.20 in 10.0 mi Calm Calm - N/A   Clear
4:56 AM 51.3 °F 46.2 °F 83% 30.22 in 10.0 mi Calm Calm - N/A   Clear
5:56 AM 48.9 °F 45.9 °F 89% 30.23 in 10.0 mi Calm Calm - N/A   Clear
6:56 AM 50.4 °F 47.5 °F 90% 30.26 in 10.0 mi Calm Calm - N/A   Clear
7:56 AM 61.3 °F 50.7 °F 68% 30.28 in 10.0 mi Calm Calm - N/A   Overcast
8:56 AM 64.4 °F 44.2 °F 48% 30.27 in 10.0 mi Calm Calm - N/A   Clear
9:56 AM 65.7 °F 42.6 °F 43% 30.29 in 10.0 mi Calm Calm - N/A   Clear
10:56 AM 66.0 °F 41.7 °F 41% 30.30 in 10.0 mi ESE 6.9 mph - N/A   Partly Cloudy
11:56 AM 66.9 °F 43.0 °F 42% 30.30 in 10.0 mi Calm Calm - N/A   Partly Cloudy
12:56 PM 68.4 °F 43.2 °F 40% 30.30 in 10.0 mi SSE 4.6 mph - N/A   Partly Cloudy
1:56 PM 69.8 °F 44.4 °F 40% 30.28 in 10.0 mi SSE 8.1 mph - N/A   Partly Cloudy
2:56 PM 69.4 °F 44.1 °F 40% 30.28 in 10.0 mi South 4.6 mph - N/A   Clear
3:56 PM 70.2 °F 44.8 °F 40% 30.27 in 10.0 mi SE 5.8 mph - N/A   Clear
4:56 PM 70.3 °F 46.8 °F 43% 30.25 in 10.0 mi SE 4.6 mph - N/A   Clear
5:56 PM 70.9 °F 47.8 °F 44% 30.25 in 10.0 mi SE 5.8 mph - N/A   Clear
6:56 PM 69.1 °F 49.1 °F 49% 30.22 in 10.0 mi SSE 5.8 mph - N/A   Clear
7:56 PM 65.8 °F 51.6 °F 60% 30.24 in 10.0 mi SE 3.5 mph - N/A   Clear
8:56 PM 62.1 °F 50.2 °F 65% 30.26 in 10.0 mi Calm Calm - N/A   Clear
9:56 PM 59.9 °F 49.6 °F 69% 30.26 in 10.0 mi Calm Calm - N/A   Clear
10:56 PM 61.0 °F 50.0 °F 67% 30.27 in 10.0 mi Calm Calm - N/A   Mostly Cloudy
11:56 PM 61.7 °F 51.1 °F 68% 30.25 in 10.0 mi SSE 4.6 mph - N/A   Clear